Weather History for KCKC - August, 2013

Change the Weather History Date:

Friday, August 16, 2013

  Actual Average Record
Temperature  
Mean Temperature 58 °F -  
Max Temperature 73 °F 69 °F 84 °F (2015)
Min Temperature 42 °F 48 °F 42 °F (2006)
Degree Days  
Heating Degree Days 8    
Growing Degree Days 8 (Base 50)    
Moisture  
Dew Point 47 °F    
Average Humidity 65    
Maximum Humidity 93    
Minimum Humidity 38    
Precipitation  
Precipitation 0.00 in - - ()
Sea Level Pressure  
Sea Level Pressure 30.16 in    
Wind  
Wind Speed 3 mph (SW)    
Max Wind Speed 12 mph    
Max Gust Speed 18 mph    
Visibility 10 miles    
Events      
Averages and records for this station are not official NWS values.
T = Trace of Precipitation, MM = Missing Value Source: NWS Daily Summary

Daily Weather History Graph

Daily Weather History Graph

Search for Another Location

Airport or City:

Trip Planner

Search our weather history database for the weather conditions in past years. The results will help you decide how hot, cold, wet, or windy it might be!

Date:

Astronomy

Aug. 16, 2013 Rise Set
Actual Time 5:58 AM CDT 8:12 PM CDT
Civil Twilight 5:24 AM CDT 8:45 PM CDT
Nautical Twilight 4:42 AM CDT 9:27 PM CDT
Astronomical Twilight 3:54 AM CDT 10:15 PM CDT
Moon 4:39 PM CDT (8/16) 12:52 AM CDT (8/16)
Length of Visible Light 15h 21m
Length of Day
14h 13m
Waxing Gibbous, 75% of the Moon is Illuminated
Aug 16
Waxing Gibbous
Aug 20
Full
Aug 28
Last Quarter
Sep 5
New
Sep 12
First Quarter

Hourly Weather History & Observations

Time (CDT) Temp. Windchill Dew Point Humidity Pressure Visibility Wind Dir Wind Speed Gust Speed Precip Events Conditions
12:13 AM 51.8 °F - 46.4 °F 82% 30.13 in 10.0 mi NW 3.5 mph - N/A   Clear
12:53 AM 48.2 °F - 44.6 °F 87% 30.13 in 10.0 mi Calm Calm - N/A   Clear
1:14 AM 48.2 °F - 44.6 °F 87% 30.13 in 10.0 mi NW 3.5 mph - N/A   Clear
1:33 AM 48.2 °F - 44.6 °F 87% 30.13 in 10.0 mi NW 3.5 mph - N/A   Clear
1:54 AM 46.4 °F - 44.6 °F 93% 30.13 in 10.0 mi Calm Calm - N/A   Clear
2:14 AM 48.2 °F - 44.6 °F 87% 30.13 in 10.0 mi Calm Calm - N/A   Clear
2:33 AM 48.2 °F - 44.6 °F 87% 30.14 in 10.0 mi Calm Calm - N/A   Clear
2:54 AM 46.4 °F 45.2 °F 42.8 °F 87% 30.14 in 10.0 mi NW 3.5 mph - N/A   Clear
3:13 AM 46.4 °F - 42.8 °F 87% 30.14 in 10.0 mi Calm Calm - N/A   Clear
3:34 AM 44.6 °F 43.1 °F 41.0 °F 87% 30.14 in 10.0 mi NNW 3.5 mph - N/A   Clear
3:53 AM 44.6 °F - 42.8 °F 93% 30.14 in 10.0 mi Calm Calm - N/A   Clear
4:13 AM 46.4 °F - 42.8 °F 87% 30.14 in 10.0 mi Calm Calm - N/A   Clear
4:33 AM 44.6 °F 43.1 °F 41.0 °F 87% 30.14 in 10.0 mi WNW 3.5 mph - N/A   Clear
4:54 AM 44.6 °F 43.1 °F 41.0 °F 87% 30.15 in 10.0 mi WNW 3.5 mph - N/A   Clear
5:14 AM 44.6 °F 43.1 °F 39.2 °F 81% 30.15 in 10.0 mi NW 3.5 mph - N/A   Clear
5:33 AM 42.8 °F - 39.2 °F 87% 30.15 in 10.0 mi Calm Calm - N/A   Clear
5:54 AM 42.8 °F - 39.2 °F 87% 30.15 in 10.0 mi Calm Calm - N/A   Clear
6:13 AM 42.8 °F - 39.2 °F 87% 30.15 in 10.0 mi Calm Calm - N/A   Clear
6:34 AM 44.6 °F - 41.0 °F 87% 30.15 in 10.0 mi Calm Calm - N/A   Clear
6:53 AM 46.4 °F - 42.8 °F 87% 30.15 in 10.0 mi Calm Calm - N/A   Clear
7:13 AM 50.0 °F - 44.6 °F 82% 30.15 in 10.0 mi Calm Calm - N/A   Clear
7:33 AM 53.6 °F - 46.4 °F 77% 30.16 in 10.0 mi WNW 3.5 mph - N/A   Clear
7:53 AM 57.2 °F - 48.2 °F 72% 30.16 in 10.0 mi Calm Calm - N/A   Clear
8:13 AM 60.8 °F - 51.8 °F 72% 30.17 in 10.0 mi Calm Calm - N/A   Clear
8:33 AM 66.2 °F - 50.0 °F 56% 30.17 in 10.0 mi West 3.5 mph - N/A   Clear
8:54 AM 66.2 °F - 51.8 °F 60% 30.17 in 10.0 mi Calm Calm - N/A   Clear
9:13 AM 68.0 °F - 53.6 °F 60% 30.17 in 10.0 mi Calm Calm - N/A   Clear
9:33 AM 69.8 °F - 53.6 °F 56% 30.17 in 10.0 mi Calm Calm - N/A   Clear
9:53 AM 69.8 °F - 51.8 °F 53% 30.18 in 10.0 mi Calm Calm - N/A   Clear
10:14 AM 71.6 °F - 53.6 °F 53% 30.17 in 10.0 mi Calm Calm - N/A   Clear
10:33 AM 71.6 °F - 50.0 °F 46% 30.17 in 10.0 mi SW 3.5 mph - N/A   Clear
10:53 AM 71.6 °F - 48.2 °F 43% 30.17 in 10.0 mi SW 4.6 mph - N/A   Clear
11:14 AM 73.4 °F - 48.2 °F 41% 30.17 in 10.0 mi WSW 4.6 mph - N/A   Clear
11:33 AM 73.4 °F - 48.2 °F 41% 30.17 in 10.0 mi SSW 3.5 mph - N/A   Clear
11:54 AM 73.4 °F - 46.4 °F 38% 30.17 in 10.0 mi SSW 6.9 mph - N/A   Scattered Clouds
12:13 PM 71.6 °F - 46.4 °F 41% 30.17 in 10.0 mi South 4.6 mph - N/A   Clear
12:34 PM 73.4 °F - 51.8 °F 47% 30.17 in 10.0 mi South 4.6 mph - N/A   Clear
12:54 PM 73.4 °F - 50.0 °F 44% 30.16 in 10.0 mi South 5.8 mph - N/A   Clear
1:13 PM 73.4 °F - 50.0 °F 44% 30.16 in 10.0 mi South 5.8 mph - N/A   Clear
1:34 PM 73.4 °F - 48.2 °F 41% 30.16 in 10.0 mi South 5.8 mph - N/A   Clear
1:53 PM 73.4 °F - 48.2 °F 41% 30.16 in 10.0 mi South 8.1 mph 16.1 mph N/A   Clear
2:14 PM 73.4 °F - 48.2 °F 41% 30.16 in 10.0 mi South 6.9 mph - N/A   Clear
2:33 PM 73.4 °F - 48.2 °F 41% 30.16 in 10.0 mi South 8.1 mph - N/A   Clear
2:54 PM 73.4 °F - 48.2 °F 41% 30.16 in 10.0 mi South 11.5 mph 16.1 mph N/A   Clear
3:14 PM 71.6 °F - 46.4 °F 41% 30.16 in 10.0 mi SSW 11.5 mph 17.3 mph N/A   Clear
3:33 PM 73.4 °F - 48.2 °F 41% 30.16 in 10.0 mi South 6.9 mph - N/A   Clear
3:54 PM 71.6 °F - 48.2 °F 43% 30.16 in 10.0 mi South 6.9 mph - N/A   Clear
4:13 PM 71.6 °F - 46.4 °F 41% 30.16 in 10.0 mi SSW 10.4 mph 18.4 mph N/A   Clear
4:33 PM 71.6 °F - 48.2 °F 43% 30.16 in 10.0 mi South 6.9 mph 16.1 mph N/A   Clear
4:54 PM 71.6 °F - 46.4 °F 41% 30.16 in 10.0 mi SSW 11.5 mph - N/A   Clear
5:13 PM 71.6 °F - 46.4 °F 41% 30.16 in 10.0 mi South 9.2 mph - N/A   Clear
5:34 PM 69.8 °F - 46.4 °F 43% 30.16 in 10.0 mi South 9.2 mph - N/A   Clear
5:54 PM 69.8 °F - 46.4 °F 43% 30.16 in 10.0 mi SSW 6.9 mph - N/A   Clear
6:13 PM 69.8 °F - 48.2 °F 46% 30.16 in 10.0 mi SSW 9.2 mph - N/A   Clear
6:34 PM 68.0 °F - 48.2 °F 49% 30.16 in 10.0 mi SSW 6.9 mph - N/A   Clear
6:54 PM 66.2 °F - 48.2 °F 52% 30.15 in 10.0 mi SSW 4.6 mph - N/A   Clear
7:13 PM 64.4 °F - 50.0 °F 59% 30.15 in 10.0 mi South 4.6 mph - N/A   Clear
7:34 PM 62.6 °F - 51.8 °F 68% 30.15 in 10.0 mi Calm Calm - N/A   Clear
7:54 PM 60.8 °F - 51.8 °F 72% 30.15 in 10.0 mi Calm Calm - N/A   Clear
8:14 PM 60.8 °F - 50.0 °F 68% 30.15 in 10.0 mi Calm Calm - N/A   Clear
8:33 PM 59.0 °F - 51.8 °F 77% 30.15 in 10.0 mi Calm Calm - N/A   Clear
8:54 PM 59.0 °F - 50.0 °F 72% 30.16 in 10.0 mi SSW 3.5 mph - N/A   Scattered Clouds
9:14 PM 60.8 °F - 51.8 °F 72% 30.16 in 10.0 mi Calm Calm - N/A   Scattered Clouds
9:33 PM 60.8 °F - 51.8 °F 72% 30.16 in 10.0 mi WSW 3.5 mph - N/A   Mostly Cloudy
9:54 PM 60.8 °F - 51.8 °F 72% 30.16 in 10.0 mi Calm Calm - N/A   Scattered Clouds
10:13 PM 59.0 °F - 51.8 °F 77% 30.16 in 10.0 mi Calm Calm - N/A   Scattered Clouds
10:33 PM 60.8 °F - 51.8 °F 72% 30.16 in 10.0 mi Calm Calm - N/A   Scattered Clouds
10:54 PM 57.2 °F - 51.8 °F 82% 30.16 in 10.0 mi Calm Calm - N/A   Clear
11:13 PM 55.4 °F - 51.8 °F 88% 30.16 in 10.0 mi Calm Calm - N/A   Clear
11:34 PM 55.4 °F - 50.0 °F 82% 30.16 in 10.0 mi Calm Calm - N/A   Clear
11:54 PM 55.4 °F - 50.0 °F 82% 30.16 in 10.0 mi Calm Calm - N/A   Clear